Regional Weather Roundup
Issued by NWS Spokane, WA

Home | Current Version | Previous Version | Text Only | Print | Product List | Glossary On
Versions: 1 2 3 4 5 6 7 8 9 10 11 12 13 14 15 16 17 18 19 20 21 22 23 24 25 26 27 28 29 30 31 32 33 34 35 36 37 38 39 40 41 42 43 44 45 46 47 48 49 50
604
NZUS01 KOTX 310710
RWROTX
EASTERN WASHINGTON/NORTHERN IDAHO ROUNDUP
NATIONAL WEATHER SERVICE, SPOKANE WA
1200 AM PDT TUE MAY 31 2016

Note: "fair" indicated few or no clouds below 12,000 feet with no
significant weather and/or obstructions to visibility.

...NORTHEAST WASHINGTON AND NORTHERN IDAHO PANHANDLE...

CITY           SKY/WX    TMP DP  RH WIND       PRES   REMARKS
SPOKANE INTL   PTCLDY    56  32  40 S5        30.16F
SPOKANE DOWNTO CLEAR     53  38  56 NE5       30.17S
COEUR D ALENE  CLEAR     50  41  71 E5        30.16S
DEER PARK      CLEAR     42  37  82 N3        30.17S
SANDPOINT      CLEAR     43  39  87 CALM      30.18S
BONNERS FERRY  FAIR      48  39  71 CALM      30.19R

...SOUTHEAST WASHINGTON AND SOUTHERN IDAHO PANHANDLE...

CITY           SKY/WX    TMP DP  RH WIND       PRES   REMARKS
WALLA WALLA    CLEAR     52  39  61 E9        30.14S
PULLMAN/MOSCOW CLEAR     44  36  73 CALM      30.20S
LEWISTON       CLEAR     55  36  48 CALM      30.16S
LOWELL           N/A     49  42  77 CALM      30.21S

...COLUMBIA BASIN...

CITY           SKY/WX    TMP DP  RH WIND       PRES   REMARKS
EPHRATA        CLEAR     54  34  46 S3        30.13F
MOSES LAKE     CLEAR     53  36  52 NE5       30.14F
TRI CITIES     CLEAR     52  45  77 CALM      30.13S
HERMISTON      CLEAR     52  39  61 S7        30.12S
PENDLETON      CLEAR     50  39  66 E8        30.14F

...EAST SLOPES CASCADES...

CITY           SKY/WX    TMP DP  RH WIND       PRES   REMARKS
THE DALLES     PTCLDY    59  37  44 E5        30.12S
YAKIMA         CLEAR     52  38  58 CALM      30.15F
ELLENSBURG     CLEAR     54  41  61 N5        30.16F
STAMPEDE PASS  CLEAR     49  37  63 SW3       30.22F
WENATCHEE      CLEAR     58  37  45 N5        30.14S
OMAK           CLEAR     58  37  45 NW13      30.16R

...SOUTHERN BRITISH COLUMBIA...

CITY           SKY/WX    TMP DP  RH WIND       PRES   REMARKS
PENTICTON      PTCLDY    57  39  51 N9        30.20R
CRANBROOK      PTCLDY    48  34  57 SW7       30.20S

...WESTERN MONTANA...

CITY           SKY/WX    TMP DP  RH WIND       PRES   REMARKS
MISSOULA       MOCLDY    45  37  73 CALM      30.19R

...NEIGHBORING CITIES...

CITY           SKY/WX    TMP DP  RH WIND       PRES   REMARKS
SEATTLE        PTCLDY    61  44  53 NE9       30.18F



USA.gov is the U.S. government's official web portal to all federal, state and local government web resources and services.